Вернуться в каталог

STARLINK-34930

АктивенСвязьVLEO
NORAD 65688·PAYLOAD·🇺🇸 United States

Запущен Sep 21, 2025 с Cape Canaveral Space Force Station

Loading…

Ближайшие Пролёты (ближайшие 24 часа)

TLE

СвежийSource: CelesTrak SupGP

Эпоха: Sep 14, 2026, 23:14 UTC

1 65688C 25212N   26257.96854167 -.00038312  00000+0 -12317-2 0  2574
2 65688  53.1588 185.3676 0001198  76.5196 110.6590 15.31729913    18

Отслеживайте STARLINK-34930 в реальном времени с AllMySat

Download on the App Store